THOR ABLESTAR DEB, 245

Orbit data source: Space-Track

THOR ABLESTAR DEB, 245 is space debris in LEO originally from a launch on Thu, 29 Jun 1961 UTC launched from the Air Force Eastern Test Range (AFETR). Debris objects in space refer to the collection of defunct objects orbiting the Earth. Examples of debris include non-operational satellites, rocket bodies, and fragments generated from explosions, collisions, or faulty payload assembly.

Loading next visibility...
Identifier
245, 1961-015CA
Orbit
LEO
Last TLE update
7 hours ago
Origin
Manufacturer
Unknown
Mission
Spacecraft
Bus & Motor
Unknown
Mass
Unknown
Launch date (UTC)
1961-06-29 (64 years ago)
Launch vehicle
Unknown
Launch site
Air Force Eastern Test Range (AFETR)
Object type
Payload
Rocket body
Debris
Shape & HBR
Unknown
Radar Cross Section
Medium (>0.1 m² and <1 m²)

Expand to show TLE details & history

TLE from 7 hours ago
0 THOR ABLESTAR DEB
1 00245U 61015CA  25182.59047325  .00000228  00000-0  15412-3 0  9995
2 00245  66.1045  12.1888 0043425  35.4865 324.9097 14.17509710278176
Epoch: 2025-07-01T14:10Z
TLE epoch observation values (Epoch: 2025-07-01T14:10:16.888Z)
Latitude
0.00001°
Longitude
-120.2653°
Altitude
810.252 km
Speed
7.462 km/s
True Right ascension
00h 48m 45s
True Declination
0° 00' 00"
Sunlit
Object was in daylight at epoch
Visualization orbit readout
Latitude
65.70887°
Longitude
-18.5932°
Altitude
828.382 km
Speed
7.454 km/s
Apparent Right ascension
22h 53m 23s
Apparent Declination
45° 41' 24"
Sunlit
Object is in daylight
Visualization observer readout
Local Sidereal Time
09:03:31
Azimuth
341.202° N
Elevation
-0.929°
Doppler factor
1
Orbital elements
Apogee altitude
863.552 km
Perigee altitude
800.93 km
Semi-major axis
7,210.378 km
Eccentricity
0.00434
Inclination
66.1045°
RAAN
12.1888°
Arg. of periapsis
35.4865°
True anomaly
Unknown
Mean anomaly
324.9097°
Eccentric anomaly
Unknown
Mean motion
3.54492 °/min
Orbital period
101.55 mins
BSTAR
0.00015412
Loading maneuver chart data...
Loading SW <> Apogee altitude chart data...

THOR ABLESTAR DEB Visibility forecast

Observer location: undefined°, undefined°

Span
Click to sort rows by Start time (UTC) header in descending order
Start Az.
Max El. time (UTC)
Max El. Az.
Max El.
End time (UTC)
End Az.
9 mins2025-07-01 23:11:16.981Z339.22° N2025-07-01 23:15:16.981Z37.761° NE41.05°2025-07-01 23:20:16.981Z135.928° SSE
6 mins2025-07-02 00:57:16.981Z282.914° WNW2025-07-02 00:59:16.981Z257.933° W17.89°2025-07-02 01:03:16.981Z211.8° SW
8 mins2025-07-02 14:01:16.981Z192.213° SSW2025-07-02 14:04:16.981Z140.69° SSE41.785°2025-07-02 14:09:16.981Z37.02° NE
6 mins2025-07-02 15:47:16.981Z283.212° WNW2025-07-02 15:49:16.981Z310.519° NW19.468°2025-07-02 15:53:16.981Z0.681° NNE
|